Time,TemperatureF,DewpointF,PressureIn,WindDirection,WindDirectionDegrees,WindSpeedMPH,WindSpeedGustMPH,Humidity,HourlyPrecipIn,Conditions,Clouds,dailyrainin,SolarRadiationWatts/m^2,SoftwareType,DateUTC
2013-05-29 00:01:00,50.0,43.0,-100.00,North,4,2.0,6.0,78,0.00,,,0.00,1.000000,,2013-05-29 06:01:00,
2013-05-29 00:12:00,50.0,43.0,-100.00,North,4,2.0,6.0,78,0.00,,,0.00,1.000000,,2013-05-29 06:12:00,
2013-05-29 00:21:00,50.0,43.0,-100.00,North,4,2.0,6.0,78,0.00,,,0.00,1.000000,,2013-05-29 06:21:00,
2013-05-29 00:42:00,50.0,43.0,-100.00,NE,52,5.0,8.0,76,0.00,,,0.00,1.000000,,2013-05-29 06:42:00,
2013-05-29 00:52:00,50.0,43.0,-100.00,NE,52,5.0,8.0,76,0.00,,,0.00,1.000000,,2013-05-29 06:52:00,
2013-05-29 01:01:00,50.0,43.0,-100.00,NE,52,5.0,8.0,76,0.00,,,0.00,1.000000,,2013-05-29 07:01:00,
2013-05-29 01:11:00,50.0,43.0,-100.00,NE,52,5.0,8.0,76,0.00,,,0.00,1.000000,,2013-05-29 07:11:00,
2013-05-29 01:21:00,50.0,43.0,-100.00,NE,52,5.0,8.0,76,0.00,,,0.00,1.000000,,2013-05-29 07:21:00,
2013-05-29 01:42:00,49.0,43.0,-100.00,North,10,1.0,7.0,81,0.00,,,0.00,1.000000,,2013-05-29 07:42:00,
2013-05-29 01:52:00,49.0,43.0,-100.00,North,10,1.0,7.0,81,0.00,,,0.00,1.000000,,2013-05-29 07:52:00,
2013-05-29 02:02:00,49.0,43.0,-100.00,North,10,1.0,7.0,81,0.00,,,0.00,1.000000,,2013-05-29 08:02:00,
2013-05-29 02:11:00,49.0,43.0,-100.00,North,10,1.0,7.0,81,0.00,,,0.00,1.000000,,2013-05-29 08:11:00,
2013-05-29 02:21:00,49.0,43.0,-100.00,North,10,1.0,7.0,81,0.00,,,0.00,1.000000,,2013-05-29 08:21:00,
2013-05-29 02:42:00,48.0,44.0,-100.00,NNE,12,1.0,6.0,85,0.00,,,0.00,1.000000,,2013-05-29 08:42:00,
2013-05-29 02:52:00,48.0,44.0,-100.00,NNE,12,1.0,6.0,85,0.00,,,0.00,1.000000,,2013-05-29 08:52:00,
2013-05-29 03:01:00,48.0,44.0,-100.00,NNE,12,1.0,6.0,85,0.00,,,0.00,1.000000,,2013-05-29 09:01:00,
2013-05-29 03:11:00,48.0,44.0,-100.00,NNE,12,1.0,6.0,85,0.00,,,0.00,1.000000,,2013-05-29 09:11:00,
2013-05-29 03:21:00,48.0,44.0,-100.00,NNE,12,1.0,6.0,85,0.00,,,0.00,1.000000,,2013-05-29 09:21:00,
2013-05-29 03:42:00,47.0,44.0,-100.00,WSW,251,0.0,4.0,90,0.00,,,0.00,1.000000,,2013-05-29 09:42:00,
2013-05-29 03:52:00,47.0,44.0,-100.00,WSW,251,0.0,4.0,90,0.00,,,0.00,1.000000,,2013-05-29 09:52:00,
2013-05-29 04:03:00,47.0,44.0,-100.00,WSW,251,0.0,4.0,90,0.00,,,0.00,1.000000,,2013-05-29 10:03:00,
2013-05-29 04:12:00,47.0,44.0,-100.00,WSW,251,0.0,4.0,90,0.00,,,0.00,1.000000,,2013-05-29 10:12:00,
2013-05-29 04:22:00,47.0,44.0,-100.00,WSW,251,0.0,4.0,90,0.00,,,0.00,1.000000,,2013-05-29 10:22:00,
2013-05-29 04:42:00,47.0,44.0,-100.00,South,182,0.0,6.0,89,0.00,,,0.00,1.000000,,2013-05-29 10:42:00,
2013-05-29 04:53:00,47.0,44.0,-100.00,South,182,0.0,6.0,89,0.00,,,0.00,1.000000,,2013-05-29 10:53:00,
2013-05-29 05:02:00,47.0,44.0,-100.00,South,182,0.0,6.0,89,0.00,,,0.00,1.000000,,2013-05-29 11:02:00,
2013-05-29 05:12:00,47.0,44.0,-100.00,South,182,0.0,6.0,89,0.00,,,0.00,1.000000,,2013-05-29 11:12:00,
2013-05-29 05:22:00,47.0,44.0,-100.00,South,182,0.0,6.0,89,0.00,,,0.00,1.000000,,2013-05-29 11:22:00,
2013-05-29 05:42:00,46.0,43.0,-100.00,NW,309,2.0,5.0,90,0.00,,,0.00,1.000000,,2013-05-29 11:42:00,
2013-05-29 05:52:00,46.0,43.0,-100.00,NW,309,2.0,5.0,90,0.00,,,0.00,1.000000,,2013-05-29 11:52:00,
2013-05-29 06:01:00,46.0,43.0,-100.00,NW,309,2.0,5.0,90,0.00,,,0.00,1.000000,,2013-05-29 12:01:00,
2013-05-29 06:11:00,46.0,43.0,-100.00,NW,309,2.0,5.0,90,0.00,,,0.00,1.000000,,2013-05-29 12:11:00,
2013-05-29 06:21:00,46.0,43.0,-100.00,NW,309,2.0,5.0,90,0.00,,,0.00,1.000000,,2013-05-29 12:21:00,
2013-05-29 06:42:00,47.0,44.0,-100.00,WNW,297,0.0,3.0,89,0.00,,,0.00,27.000000,,2013-05-29 12:42:00,
2013-05-29 06:52:00,47.0,44.0,-100.00,WNW,297,0.0,3.0,89,0.00,,,0.00,27.000000,,2013-05-29 12:52:00,
2013-05-29 07:02:00,47.0,44.0,-100.00,WNW,297,0.0,3.0,89,0.00,,,0.00,27.000000,,2013-05-29 13:02:00,
2013-05-29 07:11:00,47.0,44.0,-100.00,WNW,297,0.0,3.0,89,0.00,,,0.00,27.000000,,2013-05-29 13:11:00,
2013-05-29 07:21:00,47.0,44.0,-100.00,WNW,297,0.0,3.0,89,0.00,,,0.00,27.000000,,2013-05-29 13:21:00,
2013-05-29 07:42:00,50.0,45.0,-100.00,NW,321,2.0,3.0,82,0.00,,,0.00,80.000000,,2013-05-29 13:42:00,
2013-05-29 07:53:00,50.0,45.0,-100.00,NW,321,2.0,3.0,82,0.00,,,0.00,80.000000,,2013-05-29 13:53:00,
2013-05-29 08:02:00,50.0,45.0,-100.00,NW,321,2.0,3.0,82,0.00,,,0.00,80.000000,,2013-05-29 14:02:00,
2013-05-29 08:11:00,50.0,45.0,-100.00,NW,321,2.0,3.0,82,0.00,,,0.00,80.000000,,2013-05-29 14:11:00,
2013-05-29 08:21:00,50.0,45.0,-100.00,NW,321,2.0,3.0,82,0.00,,,0.00,80.000000,,2013-05-29 14:21:00,
2013-05-29 08:42:00,55.0,46.0,-100.00,ESE,106,2.0,5.0,72,0.00,,,0.00,178.000000,,2013-05-29 14:42:00,
2013-05-29 08:52:00,55.0,46.0,-100.00,ESE,106,2.0,5.0,72,0.00,,,0.00,178.000000,,2013-05-29 14:52:00,
2013-05-29 09:01:00,55.0,46.0,-100.00,ESE,106,2.0,5.0,72,0.00,,,0.00,178.000000,,2013-05-29 15:01:00,
2013-05-29 09:11:00,55.0,46.0,-100.00,ESE,106,2.0,5.0,72,0.00,,,0.00,178.000000,,2013-05-29 15:11:00,
2013-05-29 09:21:00,55.0,46.0,-100.00,ESE,106,2.0,5.0,72,0.00,,,0.00,178.000000,,2013-05-29 15:21:00,
2013-05-29 09:43:00,60.0,46.0,-100.00,SE,140,5.0,12.0,59,0.00,,,0.00,521.000000,,2013-05-29 15:43:00,
2013-05-29 09:53:00,60.0,46.0,-100.00,SE,140,5.0,12.0,59,0.00,,,0.00,521.000000,,2013-05-29 15:53:00,
2013-05-29 10:03:00,60.0,46.0,-100.00,SE,140,5.0,12.0,59,0.00,,,0.00,521.000000,,2013-05-29 16:03:00,
2013-05-29 10:12:00,60.0,46.0,-100.00,SE,140,5.0,12.0,59,0.00,,,0.00,521.000000,,2013-05-29 16:12:00,
2013-05-29 10:22:00,60.0,46.0,-100.00,SE,140,5.0,12.0,59,0.00,,,0.00,521.000000,,2013-05-29 16:22:00,
2013-05-29 10:42:00,58.0,47.0,-100.00,East,99,4.0,9.0,68,0.00,,,0.00,485.000000,,2013-05-29 16:42:00,
2013-05-29 10:52:00,58.0,47.0,-100.00,East,99,4.0,9.0,68,0.00,,,0.00,485.000000,,2013-05-29 16:52:00,
2013-05-29 11:02:00,58.0,47.0,-100.00,East,99,4.0,9.0,68,0.00,,,0.00,485.000000,,2013-05-29 17:02:00,
2013-05-29 11:12:00,58.0,47.0,-100.00,East,99,4.0,9.0,68,0.00,,,0.00,485.000000,,2013-05-29 17:12:00,
2013-05-29 11:22:00,58.0,47.0,-100.00,East,99,4.0,9.0,68,0.00,,,0.00,485.000000,,2013-05-29 17:22:00,
2013-05-29 11:43:00,61.0,47.0,-100.00,ESE,111,4.0,9.0,59,0.00,,,0.00,573.000000,,2013-05-29 17:43:00,
2013-05-29 11:52:00,61.0,47.0,-100.00,ESE,111,4.0,9.0,59,0.00,,,0.00,573.000000,,2013-05-29 17:52:00,
2013-05-29 12:01:00,61.0,47.0,-100.00,ESE,111,4.0,9.0,59,0.00,,,0.00,573.000000,,2013-05-29 18:01:00,
2013-05-29 12:13:00,61.0,47.0,-100.00,ESE,111,4.0,9.0,59,0.00,,,0.00,573.000000,,2013-05-29 18:13:00,
2013-05-29 12:22:00,61.0,47.0,-100.00,ESE,111,4.0,9.0,59,0.00,,,0.00,573.000000,,2013-05-29 18:22:00,
2013-05-29 12:42:00,62.0,47.0,-100.00,ESE,103,4.0,11.0,57,0.00,,,0.00,773.000000,,2013-05-29 18:42:00,
2013-05-29 12:52:00,62.0,47.0,-100.00,ESE,103,4.0,11.0,57,0.00,,,0.00,773.000000,,2013-05-29 18:52:00,
2013-05-29 13:02:00,62.0,47.0,-100.00,ESE,103,4.0,11.0,57,0.00,,,0.00,773.000000,,2013-05-29 19:02:00,
2013-05-29 13:11:00,62.0,47.0,-100.00,ESE,103,4.0,11.0,57,0.00,,,0.00,773.000000,,2013-05-29 19:11:00,
2013-05-29 13:21:00,62.0,47.0,-100.00,ESE,103,4.0,11.0,57,0.00,,,0.00,773.000000,,2013-05-29 19:21:00,
2013-05-29 13:44:00,64.0,47.0,-100.00,SE,144,6.0,14.0,53,0.00,,,0.00,829.000000,,2013-05-29 19:44:00,
2013-05-29 13:53:00,64.0,47.0,-100.00,SE,144,6.0,14.0,53,0.00,,,0.00,829.000000,,2013-05-29 19:53:00,
2013-05-29 14:03:00,64.0,47.0,-100.00,SE,144,6.0,14.0,53,0.00,,,0.00,829.000000,,2013-05-29 20:03:00,
2013-05-29 14:11:00,64.0,47.0,-100.00,SE,144,6.0,14.0,53,0.00,,,0.00,829.000000,,2013-05-29 20:11:00,
2013-05-29 14:22:00,64.0,47.0,-100.00,SE,144,6.0,14.0,53,0.00,,,0.00,829.000000,,2013-05-29 20:22:00,
2013-05-29 14:42:00,62.0,48.0,-100.00,SE,143,7.0,13.0,60,0.00,,,0.00,703.000000,,2013-05-29 20:42:00,
2013-05-29 14:53:00,62.0,48.0,-100.00,SE,143,7.0,13.0,60,0.00,,,0.00,703.000000,,2013-05-29 20:53:00,
2013-05-29 15:02:00,62.0,48.0,-100.00,SE,143,7.0,13.0,60,0.00,,,0.00,703.000000,,2013-05-29 21:02:00,
2013-05-29 15:12:00,62.0,48.0,-100.00,SE,143,7.0,13.0,60,0.00,,,0.00,703.000000,,2013-05-29 21:12:00,
2013-05-29 15:22:00,62.0,48.0,-100.00,SE,143,7.0,13.0,60,0.00,,,0.00,703.000000,,2013-05-29 21:22:00,
2013-05-29 15:44:00,59.0,43.0,-100.00,SSE,158,4.0,15.0,56,0.00,,,0.00,399.000000,,2013-05-29 21:44:00,
2013-05-29 15:53:00,59.0,43.0,-100.00,SSE,158,4.0,15.0,56,0.00,,,0.00,399.000000,,2013-05-29 21:53:00,
2013-05-29 16:03:00,59.0,43.0,-100.00,SSE,158,4.0,15.0,56,0.00,,,0.00,399.000000,,2013-05-29 22:03:00,
2013-05-29 16:12:00,59.0,43.0,-100.00,SSE,158,4.0,15.0,56,0.00,,,0.00,399.000000,,2013-05-29 22:12:00,
2013-05-29 16:23:00,59.0,43.0,-100.00,SSE,158,4.0,15.0,56,0.00,,,0.00,399.000000,,2013-05-29 22:23:00,
2013-05-29 16:42:00,54.0,49.0,-100.00,West,280,2.0,10.0,82,0.01,,,0.01,185.000000,,2013-05-29 22:42:00,
2013-05-29 16:53:00,54.0,49.0,-100.00,West,280,2.0,10.0,82,0.01,,,0.01,185.000000,,2013-05-29 22:53:00,
2013-05-29 17:02:00,54.0,49.0,-100.00,West,280,2.0,10.0,82,0.01,,,0.01,185.000000,,2013-05-29 23:02:00,
2013-05-29 17:12:00,54.0,49.0,-100.00,West,280,2.0,10.0,82,0.01,,,0.01,185.000000,,2013-05-29 23:12:00,
2013-05-29 17:21:00,54.0,49.0,-100.00,West,280,2.0,10.0,82,0.01,,,0.01,185.000000,,2013-05-29 23:21:00,
2013-05-29 17:42:00,56.0,48.0,-100.00,WSW,249,2.0,6.0,74,0.00,,,0.01,331.000000,,2013-05-29 23:42:00,
2013-05-29 17:53:00,56.0,48.0,-100.00,WSW,249,2.0,6.0,74,0.00,,,0.01,331.000000,,2013-05-29 23:53:00,
2013-05-29 18:01:00,56.0,48.0,-100.00,WSW,249,2.0,6.0,74,0.00,,,0.01,331.000000,,2013-05-30 00:01:00,
2013-05-29 18:11:00,56.0,48.0,-100.00,WSW,249,2.0,6.0,74,0.00,,,0.01,331.000000,,2013-05-30 00:11:00,
2013-05-29 18:21:00,56.0,48.0,-100.00,WSW,249,2.0,6.0,74,0.00,,,0.01,331.000000,,2013-05-30 00:21:00,
2013-05-29 18:42:00,56.0,47.0,-100.00,WSW,250,3.0,9.0,71,0.00,,,0.01,284.000000,,2013-05-30 00:42:00,
2013-05-29 18:52:00,56.0,47.0,-100.00,WSW,250,3.0,9.0,71,0.00,,,0.01,284.000000,,2013-05-30 00:52:00,
2013-05-29 19:01:00,56.0,47.0,-100.00,WSW,250,3.0,9.0,71,0.00,,,0.01,284.000000,,2013-05-30 01:01:00,
2013-05-29 19:11:00,56.0,47.0,-100.00,WSW,250,3.0,9.0,71,0.00,,,0.01,284.000000,,2013-05-30 01:11:00,
2013-05-29 19:21:00,56.0,47.0,-100.00,WSW,250,3.0,9.0,71,0.00,,,0.01,284.000000,,2013-05-30 01:21:00,
2013-05-29 19:42:00,52.0,46.0,-100.00,WSW,250,2.0,8.0,81,0.00,,,0.01,109.000000,,2013-05-30 01:42:00,
2013-05-29 19:52:00,52.0,46.0,-100.00,WSW,250,2.0,8.0,81,0.00,,,0.01,109.000000,,2013-05-30 01:52:00,
2013-05-29 20:01:00,52.0,46.0,-100.00,WSW,250,2.0,8.0,81,0.00,,,0.01,109.000000,,2013-05-30 02:01:00,
2013-05-29 20:11:00,52.0,46.0,-100.00,WSW,250,2.0,8.0,81,0.00,,,0.01,109.000000,,2013-05-30 02:11:00,
2013-05-29 20:21:00,52.0,46.0,-100.00,WSW,250,2.0,8.0,81,0.00,,,0.01,109.000000,,2013-05-30 02:21:00,
2013-05-29 21:02:00,51.0,46.0,-100.00,WSW,247,1.0,4.0,84,0.00,,,0.01,17.000000,,2013-05-30 03:02:00,
2013-05-29 21:11:00,51.0,46.0,-100.00,WSW,247,1.0,4.0,84,0.00,,,0.01,17.000000,,2013-05-30 03:11:00,
2013-05-29 21:21:00,51.0,46.0,-100.00,WSW,247,1.0,4.0,84,0.00,,,0.01,17.000000,,2013-05-30 03:21:00,
2013-05-29 21:43:00,51.0,48.0,-100.00,ESE,118,2.0,7.0,88,0.10,,,0.11,1.000000,,2013-05-30 03:43:00,
2013-05-29 21:53:00,51.0,48.0,-100.00,ESE,118,2.0,7.0,88,0.10,,,0.11,1.000000,,2013-05-30 03:53:00,
2013-05-29 22:03:00,51.0,48.0,-100.00,ESE,118,2.0,7.0,88,0.10,,,0.11,1.000000,,2013-05-30 04:03:00,
2013-05-29 22:12:00,51.0,48.0,-100.00,ESE,118,2.0,7.0,88,0.10,,,0.11,1.000000,,2013-05-30 04:12:00,
2013-05-29 22:23:00,51.0,48.0,-100.00,ESE,118,2.0,7.0,88,0.10,,,0.11,1.000000,,2013-05-30 04:23:00,
2013-05-29 22:42:00,49.0,48.0,-100.00,NW,314,3.0,7.0,95,0.02,,,0.13,1.000000,,2013-05-30 04:42:00,
2013-05-29 22:53:00,49.0,48.0,-100.00,NW,314,3.0,7.0,95,0.02,,,0.13,1.000000,,2013-05-30 04:53:00,
2013-05-29 23:02:00,49.0,48.0,-100.00,NW,314,3.0,7.0,95,0.02,,,0.13,1.000000,,2013-05-30 05:02:00,
2013-05-29 23:12:00,49.0,48.0,-100.00,NW,314,3.0,7.0,95,0.02,,,0.13,1.000000,,2013-05-30 05:12:00,
2013-05-29 23:22:00,49.0,48.0,-100.00,NW,314,3.0,7.0,95,0.02,,,0.13,1.000000,,2013-05-30 05:22:00,
2013-05-29 23:43:00,48.0,46.0,-100.00,NNW,332,2.0,5.0,93,0.00,,,0.13,1.000000,,2013-05-30 05:43:00,
2013-05-29 23:52:00,48.0,46.0,-100.00,NNW,332,2.0,5.0,93,0.00,,,0.13,1.000000,,2013-05-30 05:52:00,